ICG27 BIRK-BIRK

Flight info

Callsign ICG27
Flight time N/A
Altitude 2500
Route VFR
Aircraft EC25/M-VGD/C

Departure

Time 2026-05-08 10:50
Airport Reykjavík Domestic Airport (BIRK)

Arrival

Time N/A
Airport Reykjavík Domestic Airport (BIRK)
Time Latitude Longitude Altitude Speed Heading
2026-05-08 10:39 64.12410 -21.93219 30 ft 0 kts 173°
2026-05-08 10:48 64.12409 -21.93195 30 ft 6 kts 33°
2026-05-08 10:48 64.12435 -21.93213 30 ft 2 kts 321°
2026-05-08 10:49 64.12441 -21.93229 30 ft 0 kts 304°
2026-05-08 10:49 64.12442 -21.93230 30 ft 0 kts 304°
2026-05-08 10:49 64.12443 -21.93203 50 ft 5 kts 330°
2026-05-08 10:49 64.12457 -21.93203 86 ft 24 kts 308°
2026-05-08 10:50 64.12692 -21.93630 256 ft 57 kts 310°
2026-05-08 10:50 64.12995 -21.94440 446 ft 76 kts 292°
2026-05-08 10:50 64.12857 -21.95669 650 ft 94 kts 226°
2026-05-08 10:50 64.12323 -21.96736 672 ft 106 kts 217°
2026-05-08 10:51 64.11759 -21.97794 653 ft 104 kts 216°
2026-05-08 10:51 64.11204 -21.98822 638 ft 102 kts 216°
2026-05-08 10:51 64.10651 -21.99829 630 ft 101 kts 214°
2026-05-08 10:51 64.10099 -22.00817 623 ft 100 kts 215°
2026-05-08 10:52 64.09554 -22.01815 629 ft 101 kts 218°
2026-05-08 10:52 64.09009 -22.02827 596 ft 101 kts 217°
2026-05-08 10:52 64.08463 -22.03833 568 ft 101 kts 217°
2026-05-08 10:52 64.07913 -22.04834 536 ft 101 kts 216°
2026-05-08 10:53 64.07359 -22.05817 500 ft 100 kts 215°
2026-05-08 10:53 64.06816 -22.06765 516 ft 97 kts 213°
2026-05-08 10:53 64.06315 -22.07755 528 ft 95 kts 222°
2026-05-08 10:53 64.05911 -22.08899 548 ft 93 kts 233°
2026-05-08 10:54 64.05597 -22.10160 574 ft 90 kts 238°
2026-05-08 10:54 64.05293 -22.11382 609 ft 87 kts 234°
2026-05-08 10:54 64.04920 -22.12456 655 ft 86 kts 225°
2026-05-08 10:54 64.04509 -22.13419 694 ft 83 kts 220°
2026-05-08 10:55 64.04091 -22.14305 740 ft 81 kts 218°
2026-05-08 10:55 64.03677 -22.15156 793 ft 79 kts 217°
2026-05-08 10:55 64.03280 -22.16014 853 ft 78 kts 222°
2026-05-08 10:55 64.02925 -22.16909 941 ft 74 kts 226°
2026-05-08 10:56 64.02613 -22.17806 1032 ft 71 kts 229°
2026-05-08 10:56 64.02341 -22.18712 1110 ft 70 kts 232°
2026-05-08 10:56 64.02057 -22.19687 1112 ft 77 kts 231°
2026-05-08 10:56 64.01736 -22.20727 1119 ft 82 kts 232°
2026-05-08 10:57 64.01399 -22.21835 1106 ft 88 kts 235°
2026-05-08 10:57 64.01066 -22.23054 1082 ft 92 kts 238°
2026-05-08 10:57 64.00477 -22.25593 1090 ft 89 kts 242°
2026-05-08 10:58 64.00226 -22.26873 1094 ft 88 kts 245°
2026-05-08 10:58 63.99985 -22.28144 1105 ft 87 kts 244°
2026-05-08 10:58 63.99723 -22.29381 1132 ft 86 kts 240°
2026-05-08 10:58 63.99435 -22.30579 1157 ft 86 kts 238°
2026-05-08 10:59 63.99123 -22.31749 1175 ft 88 kts 234°
2026-05-08 10:59 63.98774 -22.32970 1113 ft 96 kts 234°
2026-05-08 10:59 63.98405 -22.34290 1035 ft 101 kts 235°
2026-05-08 10:59 63.98043 -22.35651 973 ft 102 kts 237°
2026-05-08 11:00 63.97687 -22.37049 919 ft 102 kts 238°
2026-05-08 11:00 63.97346 -22.38464 869 ft 102 kts 239°
2026-05-08 11:00 63.97035 -22.39910 833 ft 102 kts 246°
2026-05-08 11:00 63.96863 -22.41464 782 ft 101 kts 261°
2026-05-08 11:01 63.96831 -22.43045 771 ft 99 kts 269°
2026-05-08 11:01 63.96906 -22.44574 755 ft 96 kts 277°
2026-05-08 11:01 63.97066 -22.46027 777 ft 93 kts 284°
2026-05-08 11:01 63.97296 -22.47387 799 ft 91 kts 290°
2026-05-08 11:02 63.97581 -22.48656 833 ft 88 kts 290°
2026-05-08 11:02 63.97831 -22.51456 765 ft 95 kts 270°
2026-05-08 11:02 63.97983 -22.52951 702 ft 100 kts 287°
2026-05-08 11:03 63.98299 -22.54357 657 ft 99 kts 293°
2026-05-08 11:03 63.98482 -22.55830 720 ft 96 kts 270°
2026-05-08 11:03 63.98508 -22.57296 583 ft 89 kts 266°
2026-05-08 11:03 63.98496 -22.58665 428 ft 84 kts 265°
2026-05-08 11:04 63.98500 -22.59951 285 ft 76 kts 266°
2026-05-08 11:04 63.98507 -22.60918 247 ft 39 kts 262°
2026-05-08 11:04 63.98507 -22.61129 209 ft 2 kts 328°
2026-05-08 11:04 63.98565 -22.61129 204 ft 14 kts 354°
2026-05-08 11:05 63.98706 -22.61124 180 ft 25 kts 351°
2026-05-08 11:05 63.98846 -22.61178 192 ft 11 kts 294°
2026-05-08 11:05 63.98853 -22.61352 181 ft 12 kts 260°
2026-05-08 11:05 63.98851 -22.61576 177 ft 18 kts 259°
2026-05-08 11:06 63.98849 -22.61921 170 ft 25 kts 257°
2026-05-08 11:06 63.98852 -22.62349 180 ft 28 kts 259°
2026-05-08 11:06 63.98850 -22.62719 166 ft 18 kts 258°
2026-05-08 11:06 63.98878 -22.62866 162 ft 12 kts
2026-05-08 11:07 63.99009 -22.62791 160 ft 22 kts
2026-05-08 11:07 63.99115 -22.62718 148 ft 9 kts 11°
2026-05-08 11:07 63.99125 -22.62711 138 ft 0 kts
2026-05-08 11:08 63.99145 -22.62700 139 ft 7 kts 358°
2026-05-08 11:08 63.99172 -22.62764 138 ft 11 kts 273°
2026-05-08 11:08 63.99172 -22.62977 138 ft 15 kts 269°
2026-05-08 11:08 63.99171 -22.63223 138 ft 9 kts 269°
2026-05-08 11:09 63.99171 -22.63250 138 ft 0 kts 269°
2026-05-08 11:09 63.99171 -22.63256 145 ft 4 kts 264°
2026-05-08 11:09 63.99168 -22.63443 174 ft 23 kts 274°
2026-05-08 11:10 63.99178 -22.64125 263 ft 61 kts 260°
2026-05-08 11:10 63.99170 -22.65243 399 ft 76 kts 261°
2026-05-08 11:10 63.99363 -22.66342 469 ft 82 kts 318°
2026-05-08 11:10 63.99890 -22.66149 526 ft 87 kts 42°
2026-05-08 11:11 64.00031 -22.64748 527 ft 97 kts 79°
2026-05-08 11:11 64.00055 -22.63183 549 ft 101 kts 83°
2026-05-08 11:11 64.00046 -22.61577 580 ft 102 kts 84°
2026-05-08 11:11 64.00049 -22.59961 616 ft 102 kts 82°
2026-05-08 11:12 64.00043 -22.58337 637 ft 105 kts 92°
2026-05-08 11:12 63.99671 -22.56924 630 ft 107 kts 136°
2026-05-08 11:12 63.98985 -22.56523 591 ft 104 kts 189°
2026-05-08 11:12 63.98504 -22.57587 436 ft 100 kts 255°
2026-05-08 11:13 63.98500 -22.59109 287 ft 93 kts 269°
2026-05-08 11:13 63.98502 -22.60443 210 ft 76 kts 265°
2026-05-08 11:13 63.98501 -22.61610 185 ft 74 kts 262°
2026-05-08 11:13 63.98500 -22.62841 188 ft 81 kts 263°
2026-05-08 11:14 63.98506 -22.64112 239 ft 79 kts 264°
2026-05-08 11:14 63.98495 -22.65345 387 ft 77 kts 260°
2026-05-08 11:14 63.98474 -22.66550 514 ft 76 kts 261°
2026-05-08 11:14 63.98695 -22.67633 476 ft 83 kts 315°
2026-05-08 11:15 63.99255 -22.67907 491 ft 83 kts 352°
2026-05-08 11:15 63.99826 -22.67829 534 ft 82 kts
2026-05-08 11:15 64.00224 -22.66935 517 ft 87 kts 68°
2026-05-08 11:15 64.00191 -22.65563 534 ft 87 kts 89°
2026-05-08 11:16 64.00129 -22.64196 560 ft 87 kts 86°
2026-05-08 11:16 64.00121 -22.62819 577 ft 87 kts 80°
2026-05-08 11:16 64.00176 -22.61438 591 ft 88 kts 74°
2026-05-08 11:16 64.00277 -22.60052 587 ft 90 kts 72°
2026-05-08 11:17 64.00215 -22.58622 525 ft 95 kts 112°
2026-05-08 11:17 63.99689 -22.57809 499 ft 94 kts 167°
2026-05-08 11:17 63.99069 -22.57805 486 ft 81 kts 175°
2026-05-08 11:17 63.98618 -22.58309 393 ft 68 kts 226°
2026-05-08 11:18 63.98501 -22.59233 252 ft 57 kts 264°
2026-05-08 11:18 63.98506 -22.60124 213 ft 58 kts 258°
2026-05-08 11:18 63.98505 -22.61059 196 ft 60 kts 260°
2026-05-08 11:18 63.98500 -22.62017 181 ft 62 kts 259°
2026-05-08 11:19 63.98507 -22.62998 236 ft 61 kts 259°
2026-05-08 11:19 63.98477 -22.63940 340 ft 59 kts 252°
2026-05-08 11:19 63.98356 -22.64815 389 ft 61 kts 221°
2026-05-08 11:19 63.97937 -22.65179 408 ft 71 kts 181°
2026-05-08 11:20 63.97412 -22.65400 403 ft 82 kts 180°
2026-05-08 11:20 63.96795 -22.65654 427 ft 100 kts 181°
2026-05-08 11:20 63.96069 -22.65956 416 ft 113 kts 183°
2026-05-08 11:20 63.95278 -22.66259 469 ft 116 kts 181°
2026-05-08 11:21 63.94470 -22.66462 530 ft 117 kts 178°
2026-05-08 11:21 63.93652 -22.66558 582 ft 118 kts 174°
2026-05-08 11:21 63.92832 -22.66552 630 ft 118 kts 171°
2026-05-08 11:21 63.92055 -22.66252 751 ft 108 kts 145°
2026-05-08 11:22 63.91637 -22.64993 911 ft 100 kts 95°
2026-05-08 11:22 63.91604 -22.63359 934 ft 108 kts 82°
2026-05-08 11:22 63.91602 -22.61594 920 ft 115 kts 84°
2026-05-08 11:22 63.91575 -22.59774 976 ft 113 kts 86°
2026-05-08 11:23 63.91522 -22.58001 1055 ft 113 kts 88°
2026-05-08 11:23 63.91448 -22.56230 1125 ft 113 kts 90°
2026-05-08 11:23 63.91349 -22.54447 1155 ft 116 kts 92°
2026-05-08 11:24 63.91024 -22.50497 1274 ft 114 kts 97°
2026-05-08 11:24 63.90845 -22.48861 1371 ft 112 kts 99°
2026-05-08 11:24 63.90637 -22.47168 1447 ft 112 kts 100°
2026-05-08 11:24 63.90420 -22.45418 1461 ft 117 kts 101°
2026-05-08 11:25 63.90237 -22.43606 1458 ft 121 kts 95°
2026-05-08 11:25 63.90078 -22.41806 1599 ft 110 kts 96°
2026-05-08 11:25 63.89946 -22.40083 1582 ft 112 kts 94°
2026-05-08 11:25 63.89834 -22.38308 1555 ft 114 kts 90°
2026-05-08 11:26 63.89741 -22.36500 1506 ft 117 kts 88°
2026-05-08 11:26 63.89692 -22.34641 1430 ft 119 kts 84°
2026-05-08 11:26 63.89689 -22.32742 1364 ft 120 kts 82°
2026-05-08 11:26 63.89674 -22.30891 1455 ft 112 kts 85°
2026-05-08 11:27 63.89598 -22.29173 1533 ft 108 kts 86°
2026-05-08 11:27 63.89522 -22.27441 1504 ft 112 kts 81°
2026-05-08 11:27 63.89526 -22.25603 1409 ft 120 kts 80°
2026-05-08 11:27 63.89544 -22.23804 1541 ft 109 kts 78°
2026-05-08 11:28 63.89574 -22.22099 1536 ft 107 kts 76°
2026-05-08 11:28 63.89618 -22.20428 1619 ft 105 kts 76°
2026-05-08 11:28 63.89648 -22.18765 1685 ft 107 kts 77°
2026-05-08 11:28 63.89648 -22.17060 1750 ft 109 kts 79°
2026-05-08 11:29 63.89618 -22.15328 1823 ft 110 kts 81°
2026-05-08 11:29 63.89558 -22.13577 1881 ft 115 kts 84°
2026-05-08 11:29 63.89490 -22.11709 1809 ft 121 kts 82°
2026-05-08 11:29 63.89457 -22.09824 1871 ft 116 kts 80°
2026-05-08 11:30 63.89460 -22.08036 2018 ft 111 kts 77°
2026-05-08 11:30 63.89471 -22.06283 2075 ft 115 kts 81°
2026-05-08 11:30 63.89395 -22.04415 2014 ft 121 kts 86°
2026-05-08 11:30 63.89276 -22.02543 2115 ft 118 kts 88°
2026-05-08 11:31 63.89152 -22.00731 2220 ft 115 kts 86°
2026-05-08 11:31 63.89069 -21.98925 2300 ft 115 kts 83°
2026-05-08 11:31 63.89072 -21.97128 2366 ft 114 kts 75°
2026-05-08 11:31 63.89144 -21.95327 2444 ft 115 kts 72°
2026-05-08 11:32 63.89269 -21.93530 2498 ft 115 kts 68°
2026-05-08 11:32 63.89438 -21.91753 2518 ft 115 kts 66°
2026-05-08 11:32 63.89595 -21.89966 2541 ft 117 kts 70°
2026-05-08 11:32 63.89677 -21.88115 2572 ft 118 kts 76°
2026-05-08 11:33 63.89672 -21.86289 2644 ft 114 kts 82°
2026-05-08 11:33 63.89585 -21.84522 2739 ft 111 kts 88°
2026-05-08 11:33 63.89418 -21.82821 2863 ft 110 kts 94°
2026-05-08 11:33 63.89201 -21.81130 2914 ft 115 kts 95°
2026-05-08 11:34 63.89010 -21.79365 2921 ft 119 kts 91°
2026-05-08 11:34 63.88871 -21.77500 2922 ft 121 kts 87°
2026-05-08 11:34 63.88784 -21.75631 2990 ft 117 kts 83°
2026-05-08 11:34 63.88744 -21.73814 3077 ft 114 kts 79°
2026-05-08 11:35 63.88750 -21.72041 3162 ft 111 kts 76°
2026-05-08 11:35 63.88802 -21.70300 3234 ft 111 kts 73°
2026-05-08 11:35 63.88863 -21.68487 3199 ft 119 kts 74°
2026-05-08 11:35 63.88930 -21.66623 3237 ft 115 kts 73°
2026-05-08 11:36 63.88976 -21.64844 3293 ft 113 kts 77°
2026-05-08 11:36 63.88944 -21.63044 3243 ft 116 kts 84°
2026-05-08 11:36 63.88850 -21.61155 3093 ft 126 kts 87°
2026-05-08 11:36 63.88761 -21.59134 2949 ft 127 kts 86°
2026-05-08 11:37 63.88685 -21.57235 3018 ft 116 kts 84°
2026-05-08 11:37 63.88635 -21.55340 2860 ft 127 kts 82°
2026-05-08 11:37 63.88608 -21.53317 2685 ft 128 kts 83°
2026-05-08 11:37 63.88581 -21.51323 2509 ft 126 kts 83°
2026-05-08 11:38 63.88557 -21.49353 2336 ft 124 kts 83°
2026-05-08 11:38 63.88535 -21.47399 2166 ft 123 kts 82°
2026-05-08 11:38 63.88516 -21.45454 2009 ft 123 kts 83°
2026-05-08 11:38 63.88502 -21.43519 1841 ft 122 kts 82°
2026-05-08 11:39 63.88496 -21.42240 1742 ft 122 kts 82°
2026-05-08 11:39 63.88512 -21.40318 1581 ft 122 kts 80°
2026-05-08 11:39 63.88579 -21.37764 1394 ft 121 kts 77°
2026-05-08 11:39 63.88615 -21.36496 1279 ft 122 kts 79°
2026-05-08 11:40 63.88614 -21.34559 1143 ft 122 kts 83°
2026-05-08 11:40 63.88591 -21.32645 1058 ft 121 kts 84°
2026-05-08 11:40 63.88543 -21.30748 944 ft 120 kts 88°
2026-05-08 11:40 63.88454 -21.28865 860 ft 120 kts 90°
2026-05-08 11:41 63.88328 -21.26998 770 ft 119 kts 92°
2026-05-08 11:41 63.88169 -21.25152 690 ft 119 kts 94°
2026-05-08 11:41 63.87979 -21.23331 612 ft 118 kts 97°
2026-05-08 11:41 63.87824 -21.21533 604 ft 112 kts 89°
2026-05-08 11:42 63.87782 -21.19823 611 ft 107 kts 84°
2026-05-08 11:42 63.87619 -21.18172 567 ft 108 kts 103°
2026-05-08 11:42 63.87255 -21.16705 530 ft 105 kts 117°
2026-05-08 11:42 63.86838 -21.15399 537 ft 94 kts 114°
2026-05-08 11:43 63.86640 -21.14127 573 ft 89 kts 81°
2026-05-08 11:43 63.86812 -21.12732 521 ft 94 kts 39°
2026-05-08 11:43 63.87334 -21.11795 468 ft 100 kts 20°
2026-05-08 11:43 63.87934 -21.11047 494 ft 98 kts 19°
2026-05-08 11:44 63.88545 -21.10315 489 ft 100 kts 18°
2026-05-08 11:44 63.89164 -21.09550 469 ft 103 kts 23°
2026-05-08 11:44 63.89762 -21.08644 440 ft 104 kts 25°
2026-05-08 11:44 63.90324 -21.07641 471 ft 102 kts 28°
2026-05-08 11:45 63.90922 -21.06763 432 ft 104 kts 20°
2026-05-08 11:45 63.91543 -21.05885 364 ft 107 kts 27°
2026-05-08 11:45 63.92115 -21.05016 288 ft 86 kts 26°
2026-05-08 11:45 63.92528 -21.04391 216 ft 59 kts 24°
2026-05-08 11:46 63.92788 -21.03974 128 ft 30 kts 18°
2026-05-08 11:46 63.92905 -21.03797 98 ft 13 kts 13°
2026-05-08 11:46 63.93033 -21.03681 195 ft 58 kts 22°
2026-05-08 11:46 63.93499 -21.02805 339 ft 93 kts 44°
2026-05-08 11:47 63.93840 -21.01616 475 ft 93 kts 46°
2026-05-08 11:47 63.94003 -21.00104 475 ft 103 kts 74°
2026-05-08 11:47 63.94122 -20.98456 475 ft 107 kts 69°
2026-05-08 11:47 63.94243 -20.96776 512 ft 108 kts 72°
2026-05-08 11:48 63.94306 -20.95067 563 ft 108 kts 78°
2026-05-08 11:48 63.94328 -20.93360 601 ft 108 kts 79°
2026-05-08 11:48 63.94350 -20.91661 617 ft 107 kts 77°
2026-05-08 11:48 63.94375 -20.89971 621 ft 107 kts 77°
2026-05-08 11:49 63.94378 -20.88282 621 ft 109 kts 85°
2026-05-08 11:49 63.94070 -20.86646 600 ft 119 kts 123°
2026-05-08 11:49 63.93383 -20.85582 566 ft 120 kts 148°
2026-05-08 11:49 63.92646 -20.84763 600 ft 116 kts 147°
2026-05-08 11:50 63.91945 -20.83938 608 ft 111 kts 143°
2026-05-08 11:50 63.91315 -20.82939 626 ft 111 kts 135°
2026-05-08 11:50 63.90722 -20.81813 672 ft 112 kts 131°
2026-05-08 11:50 63.90151 -20.80601 682 ft 113 kts 128°
2026-05-08 11:51 63.89596 -20.79329 682 ft 114 kts 127°
2026-05-08 11:51 63.89065 -20.78006 684 ft 114 kts 123°
2026-05-08 11:51 63.88535 -20.76572 599 ft 122 kts 125°
2026-05-08 11:51 63.87928 -20.75182 507 ft 126 kts 134°
2026-05-08 11:52 63.87200 -20.74053 437 ft 127 kts 144°
2026-05-08 11:52 63.86436 -20.73066 421 ft 126 kts 144°
2026-05-08 11:52 63.85684 -20.72084 409 ft 124 kts 143°
2026-05-08 11:52 63.84942 -20.71104 404 ft 123 kts 143°
2026-05-08 11:53 63.84208 -20.70119 393 ft 123 kts 143°
2026-05-08 11:53 63.83443 -20.69230 324 ft 125 kts 148°
2026-05-08 11:53 63.82669 -20.68396 328 ft 122 kts 149°
2026-05-08 11:53 63.81907 -20.67615 337 ft 119 kts 149°
2026-05-08 11:54 63.81151 -20.66872 364 ft 119 kts 150°
2026-05-08 11:54 63.80388 -20.66145 404 ft 119 kts 150°
2026-05-08 11:54 63.79619 -20.65433 444 ft 119 kts 151°
2026-05-08 11:54 63.78851 -20.64743 488 ft 118 kts 153°
2026-05-08 11:55 63.78079 -20.64066 505 ft 120 kts 153°
2026-05-08 11:55 63.77298 -20.63335 525 ft 123 kts 149°
2026-05-08 11:55 63.76515 -20.62527 515 ft 126 kts 149°
2026-05-08 11:55 63.75719 -20.61657 455 ft 128 kts 148°
2026-05-08 11:56 63.74921 -20.60737 443 ft 128 kts 146°
2026-05-08 11:56 63.74159 -20.59766 461 ft 124 kts 142°
2026-05-08 11:56 63.73431 -20.58739 465 ft 123 kts 137°
2026-05-08 11:56 63.72728 -20.57648 464 ft 123 kts 135°
2026-05-08 11:57 63.72000 -20.56603 461 ft 125 kts 140°
2026-05-08 11:57 63.71231 -20.55671 465 ft 126 kts 146°
2026-05-08 11:57 63.70432 -20.54859 485 ft 126 kts 152°
2026-05-08 11:57 63.69634 -20.54103 537 ft 123 kts 149°
2026-05-08 11:58 63.68871 -20.53219 539 ft 124 kts 144°
2026-05-08 11:58 63.68127 -20.52233 565 ft 124 kts 140°
2026-05-08 11:58 63.67427 -20.51115 575 ft 123 kts 133°
2026-05-08 11:59 63.66099 -20.48608 565 ft 124 kts 126°
2026-05-08 11:59 63.65469 -20.47258 496 ft 127 kts 123°
2026-05-08 11:59 63.64838 -20.45906 493 ft 123 kts 124°
2026-05-08 11:59 63.64264 -20.44603 520 ft 115 kts 122°
2026-05-08 12:00 63.63734 -20.43280 561 ft 110 kts 118°
2026-05-08 12:00 63.63231 -20.42014 573 ft 111 kts 120°
2026-05-08 12:00 63.62666 -20.40808 577 ft 114 kts 126°
2026-05-08 12:00 63.62065 -20.39626 554 ft 116 kts 126°
2026-05-08 12:01 63.61488 -20.38360 536 ft 117 kts 122°
2026-05-08 12:01 63.60921 -20.37027 532 ft 118 kts 119°
2026-05-08 12:01 63.60354 -20.35673 540 ft 119 kts 118°
2026-05-08 12:01 63.59786 -20.34308 562 ft 120 kts 120°
2026-05-08 12:02 63.59191 -20.32977 576 ft 121 kts 122°
2026-05-08 12:02 63.58570 -20.31645 537 ft 126 kts 126°
2026-05-08 12:02 63.57931 -20.30294 482 ft 127 kts 127°
2026-05-08 12:02 63.57293 -20.28962 512 ft 122 kts 123°
2026-05-08 12:03 63.56690 -20.27663 588 ft 118 kts 122°
2026-05-08 12:03 63.56129 -20.26332 617 ft 118 kts 117°
2026-05-08 12:03 63.55552 -20.24920 527 ft 130 kts 126°
2026-05-08 12:03 63.54845 -20.23694 540 ft 128 kts 137°
2026-05-08 12:04 63.54092 -20.22691 569 ft 126 kts 140°
2026-05-08 12:04 63.53327 -20.21727 575 ft 126 kts 143°
2026-05-08 12:04 63.52541 -20.20866 550 ft 128 kts 148°
2026-05-08 12:04 63.51724 -20.20143 584 ft 125 kts 153°
2026-05-08 12:05 63.50906 -20.19497 605 ft 124 kts 155°
2026-05-08 12:05 63.50090 -20.18884 634 ft 123 kts 155°
2026-05-08 12:05 63.49278 -20.18288 671 ft 123 kts 156°
2026-05-08 12:05 63.48463 -20.17702 709 ft 123 kts 155°
2026-05-08 12:06 63.47643 -20.17120 755 ft 124 kts 155°
2026-05-08 12:06 63.46818 -20.16546 797 ft 124 kts 156°
2026-05-08 12:06 63.45957 -20.16214 745 ft 130 kts 181°
2026-05-08 12:06 63.45102 -20.16851 627 ft 131 kts 214°
2026-05-08 12:07 63.44460 -20.18225 538 ft 126 kts 236°
2026-05-08 12:07 63.44006 -20.19845 484 ft 121 kts 246°
2026-05-08 12:07 63.43579 -20.21442 473 ft 119 kts 240°
2026-05-08 12:07 63.43092 -20.22892 530 ft 115 kts 233°
2026-05-08 12:08 63.42567 -20.24198 578 ft 111 kts 231°
2026-05-08 12:08 63.42024 -20.25352 593 ft 104 kts 227°
2026-05-08 12:08 63.41535 -20.26471 667 ft 98 kts 240°
2026-05-08 12:08 63.41448 -20.27735 633 ft 76 kts 303°
2026-05-08 12:09 63.41814 -20.28250 487 ft 53 kts 343°
2026-05-08 12:09 63.42117 -20.28210 365 ft 41 kts 17°
2026-05-08 12:09 63.42350 -20.28031 336 ft 26 kts
2026-05-08 12:09 63.42462 -20.27944 362 ft 14 kts 63°
2026-05-08 12:10 63.42459 -20.27725 338 ft 9 kts 77°
2026-05-08 12:10 63.42421 -20.27473 336 ft 24 kts 98°
2026-05-08 12:10 63.42375 -20.27178 352 ft 9 kts 50°
2026-05-08 12:10 63.42388 -20.27118 332 ft 1 kts 17°
2026-05-08 12:11 63.42389 -20.27118 331 ft 0 kts 15°
2026-05-08 12:11 63.42405 -20.27104 332 ft 4 kts 21°
2026-05-08 12:11 63.42447 -20.27070 334 ft 8 kts 20°
2026-05-08 12:12 63.42461 -20.26947 335 ft 7 kts 105°
2026-05-08 12:12 63.42484 -20.26900 333 ft 6 kts 302°
2026-05-08 12:12 63.42491 -20.26936 333 ft 0 kts 288°